Printer-friendly version

IAU Minor Planet Center

Minor Planet Center

MPEC 2006-S72 : 2006 SS131

The following Minor Planet Electronic Circular may be linked-to from your own Web pages, but must not otherwise be redistributed electronically.


Read MPEC 2006-S71 Read MPEC 2006-S73


M.P.E.C. 2006-S72                                Issued 2006 Sept. 27, 13:46 UT

     The Minor Planet Electronic Circulars contain information on unusual
         minor planets and routine data on comets.  They are published
   on behalf of Commission 20 of the International Astronomical Union by the
          Minor Planet Center, Smithsonian Astrophysical Observatory,
                          Cambridge, MA 02138, U.S.A.

                  Supported in part by the Brinson Foundation
                  Supported in part by the TABASGO Foundation
             Prepared using the Tamkin Foundation Computer Network

                              MPC@CFA.HARVARD.EDU
          URL http://cfa-www.harvard.edu/iau/mpc.html  ISSN 1523-6714

                                  2006 SS131

Observations:
     K06SD1S* C2006 09 26.40894 02 41 24.90 +13 24 59.7          19.1 V ES072G96
     K06SD1S  C2006 09 26.41654 02 41 28.75 +13 23 48.2          19.6 V ES072G96
     K06SD1S  C2006 09 26.42402 02 41 32.60 +13 22 38.8          19.4 V ES072G96
     K06SD1S  C2006 09 26.43161 02 41 36.49 +13 21 29.5          19.7 V ES072G96
     K06SD1S  C2006 09 26.47431 02 41 58.41 +13 14 54.4          19.2 V ES072G96
     K06SD1S  C2006 09 26.47832 02 42 00.50 +13 14 17.0          19.1 V ES072G96
     K06SD1S  C2006 09 26.48229 02 42 02.55 +13 13 40.0          19.1 V ES072G96
     K06SD1S  C2006 09 26.48638 02 42 04.68 +13 13 01.4          18.8 V ES072G96
     K06SD1S  C2006 09 27.29610 02 49 57.00 +11 20 56.5          19.8 V ES072G96
     K06SD1S  C2006 09 27.30348 02 50 00.13 +11 20 01.6          19.6 V ES072G96
     K06SD1S  C2006 09 27.31099 02 50 03.22 +11 19 06.0          19.6 V ES072G96
     K06SD1S  C2006 09 27.41722 02 50 45.15 +11 06 04.5          20.0 R ES072651
     K06SD1S  C2006 09 27.42075 02 50 46.43 +11 05 37.7          19.5 R ES072651

Observer details:
651 Grasslands Observatory, Tucson.  Observer J. E. McGaha.  0.62-m f/5.1
    reflector + CCD.
G96 Mt. Lemmon Survey.  Observers E. C. Beshore, R. A. Kowalski.  Measurers
    E. C. Beshore, E. J. Christensen, G. J. Garradd, A. R. Gibbs, A. D. Grauer,
    R. E. Hill, R. A. Kowalski, S. M. Larson, R. H. McNaught.  1.5-m reflector
    + CCD.

Orbital elements:
2006 SS131                                               Earth MOID = 0.0126 AU
Epoch 2006 Sept. 22.0 TT = JDT 2454000.5                MPC
M   6.73631              (2000.0)            P               Q
n   0.47358436     Peri.  159.48873     +0.95546984     +0.29504931
a   1.6300633      Node   183.36195     -0.28091413     +0.90444343
e   0.3837554      Incl.    4.72107     -0.09035841     +0.30810385
P   2.08           H   25.6           G   0.15           U   7
Residuals in seconds of arc
060926 G96  1.0+  1.0+    060926 G96  0.3+  0.2+    060927 G96  0.1+  0.2-
060926 G96  0.2+  0.2-    060926 G96  0.3+  0.1-    060927 651  1.0+  0.4+
060926 G96  0.3+  0.5-    060926 G96  0.4+  0.8-    060927 651  0.1-  0.2-
060926 G96  0.3+  0.4+    060927 G96  0.0   0.4+
060926 G96  0.0   0.5+    060927 G96  0.5+  0.0

Ephemeris:
2006 SS131               a,e,i = 1.63, 0.38, 5                   q = 1.0045
Date    TT    R. A. (2000) Decl.     Delta      r     Elong.  Phase     V
2006 09 22    00 57.97   +33 10.0    0.0148   1.016   143.3    36.2    18.0
2006 09 24    02 04.31   +21 46.7    0.0196   1.019   143.4    36.0    18.6
2006 09 26    02 36.85   +14 32.8    0.0256   1.023   141.3    37.8    19.2
2006 09 28    02 55.18   +10 00.2    0.0322   1.027   139.9    39.0    19.8
2006 09 30    03 06.60   +06 58.9    0.0391   1.032   139.3    39.2    20.2
2006 10 02    03 14.17   +04 51.7    0.0461   1.036   139.4    38.9    20.6
2006 10 04    03 19.39   +03 18.3    0.0533   1.042   139.9    38.2    20.9
2006 10 06    03 23.04   +02 07.5    0.0606   1.047   140.7    37.2    21.1
2006 10 08    03 25.60   +01 12.4    0.0679   1.053   141.7    36.0    21.3
2006 10 10    03 27.35   +00 28.6    0.0754   1.060   142.9    34.6    21.5
2006 10 12    03 28.46   -00 06.5    0.0829   1.066   144.2    33.2    21.7
2006 10 14    03 29.06   -00 34.8    0.0905   1.073   145.6    31.7    21.9
2006 10 16    03 29.27   -00 57.6    0.0982   1.081   147.1    30.1    22.0
2006 10 18    03 29.14   -01 15.8    0.106    1.088   148.5    28.5    22.2
2006 10 20    03 28.75   -01 29.9    0.114    1.096   150.0    27.0    22.3
2006 10 22    03 28.15   -01 40.5    0.122    1.104   151.5    25.5    22.4

Timothy B. Spahr             (C) Copyright 2006 MPC           M.P.E.C. 2006-S72

Read MPEC 2006-S71 Read MPEC 2006-S73


Our Web policy. Index to the CBAT/MPC/ICQ pages.


Valid HTML 4.01!